This demonstration page uses our WeatherBlox Daily Observations layout. Learn more.

Left ArrowRight Arrow

Hourly Observations for November 24, 2015

Temp ( °F °C ) Dew Point ( °F °C ) Humidity (%) Winds ( mph kmh ) Pressure ( in mb ) Visibility ( mi km ) Precip ( " mm )
12:53 am 00:53 Clear 46 7.8 32 0 58 58 SE 10 17 30.00 1016 10 16 0.00 0.00
1:53 am 01:53 Clear 44 6.7 32 0 63 63 SE 9 15 29.99 1016 10 16 0.00 0.00
2:53 am 02:53 Clear 41 5 31 -0.6 67 67 SE 8 13 29.98 1015 10 16 0.00 0.00
3:53 am 03:53 Clear 40 4.4 31 -0.6 70 70 ESE 7 11 29.98 1015 10 16 0.00 0.00
4:53 am 04:53 Clear 39 3.9 30 -1.1 70 70 SE 7 11 29.97 1015 10 16 0.00 0.00
5:53 am 05:53 Clear 38 3.3 30 -1.1 73 73 SE 8 13 29.97 1015 10 16 0.00 0.00
6:53 am 06:53 Clear 37 2.8 29 -1.7 73 73 ESE 7 11 29.99 1016 10 16 0.00 0.00
7:53 am 07:53 Sunny 36 2.2 29 -1.7 76 76 ESE 5 7 30.00 1016 10 16 0.00 0.00
8:53 am 08:53 Sunny 44 6.7 31 -0.6 60 60 SSE 7 11 30.01 1016 10 16 0.00 0.00
9:53 am 09:53 Sunny 51 10.6 33 0.6 50 50 SSE 3 6 30.01 1016 10 16 0.00 0.00
10:53 am 10:53 Sunny 58 14.4 34 1.1 41 41 S 7 11 29.99 1016 10 16 0.00 0.00
11:53 am 11:53 Sunny 64 17.8 35 1.7 34 34 SSW 7 11 29.96 1015 10 16 0.00 0.00
12:53 pm 12:53 Sunny 70 21.1 36 2.2 29 29 SW 9 15 29.91 1013 10 16 0.00 0.00
1:53 pm 13:53 Sunny 74 23.3 36 2.2 25 25 WSW 9 15 29.86 1011 10 16 0.00 0.00
2:53 pm 14:53 Sunny 76 24.4 35 1.7 23 23 WSW 10 17 29.83 1010 10 16 0.00 0.00
3:53 pm 15:53 Sunny 77 25 34 1.1 21 21 SW 15 24 29.82 1010 10 16 0.00 0.00
4:53 pm 16:53 Sunny 77 25 29 -1.7 17 17 SW 13 20 29.83 1010 10 16 0.00 0.00
5:53 pm 17:53 Clear 66 18.9 31 -0.6 27 27 S 7 11 29.85 1011 10 16 0.00 0.00
6:53 pm 18:53 Clear 61 16.1 34 1.1 36 36 SSE 13 20 29.88 1012 10 16 0.00 0.00
7:53 pm 19:53 Clear 58 14.4 40 4.4 51 51 SE 12 19 29.90 1013 10 16 0.00 0.00
8:53 pm 20:53 Clear 55 12.8 41 5 59 59 SE 9 15 29.90 1013 10 16 0.00 0.00
9:53 pm 21:53 Clear 52 11.1 42 5.6 69 69 SE 12 19 29.89 1012 10 16 0.00 0.00
10:53 pm 22:53 Clear 50 10 44 6.7 80 80 SE 9 15 29.89 1012 10 16 0.00 0.00
11:53 pm 23:53 undefined 50 10 46 7.8 86 86 SE 10 17 29.89 1012 10 16 0.00 0.00

Powered by AerisWeather